TimeCDT,TemperatureF,Dew PointF,Humidity,Sea Level PressureIn,VisibilityMPH,Wind Direction,Wind SpeedMPH,Gust SpeedMPH,PrecipitationIn,Events,Conditions,WindDirDegrees,DateUTC
12:53 AM,73.0,71.1,93,29.83,7.0,Calm,Calm,-,N/A,,Clear,0,2013-09-26 05:53:00
1:53 AM,72.0,71.1,97,29.84,6.0,Calm,Calm,-,N/A,,Mostly Cloudy,0,2013-09-26 06:53:00
2:27 AM,71.6,71.6,100,29.83,1.5,Calm,Calm,-,N/A,,Mostly Cloudy,0,2013-09-26 07:27:00
2:47 AM,71.6,71.6,100,29.84,3.0,Calm,Calm,-,N/A,,Mostly Cloudy,0,2013-09-26 07:47:00
2:53 AM,72.0,71.1,97,29.83,4.0,Calm,Calm,-,N/A,,Overcast,0,2013-09-26 07:53:00
3:08 AM,73.4,71.6,94,29.83,2.5,Calm,Calm,-,N/A,,Overcast,0,2013-09-26 08:08:00
3:14 AM,73.4,71.6,94,29.83,8.0,Calm,Calm,-,N/A,,Mostly Cloudy,0,2013-09-26 08:14:00
3:53 AM,72.0,71.1,97,29.84,5.0,Calm,Calm,-,N/A,,Mostly Cloudy,0,2013-09-26 08:53:00
4:53 AM,71.1,70.0,96,29.84,5.0,Calm,Calm,-,N/A,,Clear,0,2013-09-26 09:53:00
5:53 AM,70.0,69.1,97,29.86,5.0,Calm,Calm,-,N/A,,Clear,0,2013-09-26 10:53:00
6:53 AM,71.1,70.0,96,29.88,5.0,NW,5.8,-,N/A,,Scattered Clouds,310,2013-09-26 11:53:00
7:53 AM,75.9,73.9,94,29.90,10.0,Calm,Calm,-,N/A,,Mostly Cloudy,0,2013-09-26 12:53:00
8:15 AM,78.8,73.4,83,29.90,1.2,East,5.8,-,N/A,,Haze,80,2013-09-26 13:15:00
8:22 AM,78.8,73.4,83,29.90,10.0,East,5.8,-,N/A,,Mostly Cloudy,80,2013-09-26 13:22:00
8:53 AM,78.1,72.0,81,29.91,10.0,East,5.8,-,N/A,,Scattered Clouds,80,2013-09-26 13:53:00
9:53 AM,80.1,71.1,74,29.93,10.0,ENE,5.8,-,N/A,,Scattered Clouds,60,2013-09-26 14:53:00
10:53 AM,82.9,72.0,69,29.94,10.0,East,4.6,-,N/A,,Scattered Clouds,100,2013-09-26 15:53:00
11:53 AM,82.9,72.0,69,29.93,10.0,East,5.8,-,N/A,,Scattered Clouds,100,2013-09-26 16:53:00
12:53 PM,84.0,71.1,65,29.91,10.0,SE,5.8,-,N/A,,Scattered Clouds,140,2013-09-26 17:53:00
1:53 PM,88.0,62.1,42,29.90,10.0,SE,5.8,-,N/A,,Scattered Clouds,140,2013-09-26 18:53:00
2:53 PM,87.1,66.9,51,29.88,10.0,SSE,6.9,-,N/A,,Scattered Clouds,150,2013-09-26 19:53:00
3:53 PM,87.1,64.0,46,29.88,10.0,South,4.6,-,N/A,,Partly Cloudy,190,2013-09-26 20:53:00
4:53 PM,84.9,66.9,55,29.88,10.0,South,3.5,-,N/A,,Scattered Clouds,170,2013-09-26 21:53:00
5:53 PM,82.9,70.0,65,29.89,10.0,Calm,Calm,-,N/A,,Mostly Cloudy,0,2013-09-26 22:53:00
6:53 PM,82.9,68.0,60,29.90,10.0,East,8.1,-,N/A,,Overcast,100,2013-09-26 23:53:00
7:53 PM,82.0,70.0,67,29.92,10.0,ENE,9.2,-,N/A,,Overcast,70,2013-09-27 00:53:00
8:53 PM,80.1,71.1,74,29.94,10.0,ENE,17.3,-,N/A,,Mostly Cloudy,70,2013-09-27 01:53:00
9:53 PM,78.1,70.0,76,29.96,10.0,ENE,17.3,-,N/A,,Mostly Cloudy,70,2013-09-27 02:53:00
10:53 PM,78.1,69.1,74,29.96,10.0,ENE,16.1,-,N/A,,Mostly Cloudy,70,2013-09-27 03:53:00
11:53 PM,75.9,68.0,76,29.97,10.0,ENE,11.5,-,N/A,,Partly Cloudy,70,2013-09-27 04:53:00